"startDT [UTC]","vpos","CH4 [ppm]","stdev(CH4) [ppm]","CO2 [ppm]","stdev(CO2) [ppm]","H2O [ppm]","stdev(H2O)","p_LGR [torr]","T_LGR [C]","mt1_LGR [us]","mt2_LGR [us]","T_ECpre [C]","T_EC1 [C]","T_EC2 [C]","p_inlet [hPa]","p_in [hPa]","p_out [hPa]","T_inlet [C]","RH_inlet [%]","dwpt_inlet [C]","T_vent [C]","RH_vent [%]","dwpt_vent [C]","flow_vent [l min-1]","flow_inlet [l min-1]","dwpt_sample [C]","T_room [C]"
2012-09-15 00:00:00,0.0,1.9387,0.0009,391.14,0.34,202.9,29.4,138.04,30.86,24.65,36.52,1.04,-13.70,-26.28,-47,39,-941,24.0,18.1,-1.7,24.4,1.7,-29.9,5.73,2.54,-28.0,30.5
2012-09-15 00:01:00,0.0,1.9392,0.0009,391.14,0.32,204.7,28.0,138.04,30.87,24.65,36.52,0.95,-14.61,-26.28,-47,39,-941,24.1,18.0,-1.7,24.4,1.7,-29.9,5.73,2.56,-28.0,30.5
2012-09-15 00:02:00,0.0,1.9392,0.0010,391.13,0.30,196.6,31.5,138.04,30.88,24.65,36.52,0.97,-15.44,-26.28,-47,39,-941,24.1,18.0,-1.8,24.4,1.7,-29.9,5.73,2.56,-28.0,30.5
2012-09-15 00:03:00,0.0,1.9389,0.0009,391.14,0.25,202.3,26.7,138.04,30.88,24.65,36.52,1.03,-16.19,-26.29,-47,39,-941,24.1,18.1,-1.6,24.4,1.7,-29.9,5.73,2.54,-28.0,30.5
2012-09-15 00:04:00,0.0,1.9381,0.0009,391.23,0.29,195.4,30.1,138.04,30.89,24.65,36.52,1.05,-16.92,-26.28,-47,39,-941,24.1,18.0,-1.7,24.4,1.7,-29.9,5.73,2.53,-28.0,30.5
2012-09-15 00:05:00,0.0,1.9374,0.0008,391.04,0.30,198.6,26.9,138.04,30.89,24.66,36.52,0.96,-17.64,-26.29,-47,39,-941,24.1,17.6,-2.0,24.4,1.6,-30.0,5.73,2.54,-28.0,30.5
2012-09-15 00:06:00,0.0,1.9380,0.0010,391.02,0.32,203.6,34.1,138.04,30.90,24.65,36.52,0.96,-18.33,-26.30,-46,39,-941,24.1,17.5,-2.1,24.4,1.6,-30.1,5.73,2.54,-28.0,30.6
2012-09-15 00:07:00,0.0,1.9387,0.0011,391.15,0.31,201.5,26.5,138.04,30.91,24.65,36.52,1.02,-18.99,-26.31,-46,39,-941,24.1,17.9,-1.8,24.4,1.6,-30.0,5.73,2.56,-28.0,30.5
2012-09-15 00:08:00,0.0,1.9377,0.0008,391.16,0.33,196.6,29.8,138.04,30.92,24.66,36.52,1.04,-19.61,-26.31,-47,39,-941,24.1,18.1,-1.6,24.4,1.6,-30.1,5.73,2.55,-28.0,30.5
2012-09-15 00:09:00,0.0,1.9372,0.0011,391.15,0.34,198.3,30.9,138.04,30.92,24.65,36.52,1.01,-20.20,-26.32,-47,39,-941,24.1,18.2,-1.5,24.5,1.6,-30.0,5.73,2.54,-28.0,30.5
2012-09-15 00:10:00,0.0,1.9370,0.0009,391.13,0.31,201.5,24.9,138.04,30.93,24.65,36.52,0.95,-20.76,-26.33,-47,39,-941,24.1,17.9,-1.7,24.5,1.6,-30.1,5.73,2.53,-28.0,30.6
2012-09-15 00:11:00,0.0,1.9377,0.0010,391.20,0.23,198.0,28.0,138.04,30.93,24.65,36.52,0.99,-21.27,-26.34,-47,39,-941,24.1,17.7,-1.9,24.5,1.6,-30.1,5.73,2.54,-28.0,30.6
2012-09-15 00:12:00,0.0,1.9380,0.0010,391.19,0.30,196.6,29.5,138.04,30.94,24.65,36.52,1.05,-21.75,-26.34,-47,39,-941,24.1,17.8,-1.9,24.5,1.6,-30.1,5.73,2.55,-28.0,30.6
2012-09-15 00:13:00,0.0,1.9383,0.0010,391.25,0.33,193.0,33.0,138.04,30.95,24.65,36.52,1.02,-22.21,-26.35,-47,39,-941,24.2,18.2,-1.5,24.5,1.6,-30.0,5.73,2.55,-28.0,30.6
2012-09-15 00:14:00,0.0,1.9372,0.0009,391.20,0.31,201.0,29.8,138.04,30.96,24.65,36.52,0.95,-22.64,-26.36,-47,39,-941,24.2,17.8,-1.8,24.5,1.6,-30.0,5.73,2.54,-28.0,30.6
2012-09-15 00:15:00,0.0,1.9376,0.0014,391.22,0.33,199.7,27.9,138.04,30.96,24.65,36.52,0.98,-23.04,-26.37,-47,39,-941,24.2,17.4,-2.1,24.5,1.6,-30.0,5.73,2.53,-28.0,30.6
2012-09-15 00:16:00,0.0,1.9395,0.0010,391.24,0.31,194.7,32.8,138.04,30.97,24.65,36.52,1.04,-23.43,-26.37,-47,39,-941,24.2,17.7,-1.8,24.5,1.6,-30.1,5.73,2.53,-28.0,30.6
2012-09-15 00:17:00,0.0,1.9404,0.0010,391.17,0.33,207.2,30.2,138.04,30.97,24.65,36.53,1.05,-23.79,-26.38,-47,39,-940,24.2,17.9,-1.7,24.6,1.6,-30.0,5.73,2.53,-28.0,30.6
2012-09-15 00:18:00,0.0,1.9402,0.0008,391.33,0.30,191.9,34.3,138.04,30.98,24.65,36.52,0.97,-24.14,-26.39,-47,39,-940,24.2,17.9,-1.7,24.6,1.6,-30.0,5.73,2.55,-28.0,30.7
2012-09-15 00:19:00,0.0,1.9398,0.0008,391.41,0.34,188.6,32.5,138.04,30.99,24.66,36.52,0.95,-24.47,-26.40,-47,38,-940,24.2,17.9,-1.7,24.6,1.6,-30.1,5.73,2.55,-28.0,30.7
2012-09-15 00:20:00,0.0,1.9400,0.0010,391.41,0.27,199.7,31.5,138.04,30.99,24.65,36.51,0.99,-24.77,-26.41,-47,38,-940,24.3,17.9,-1.7,24.6,1.6,-30.1,5.73,2.54,-28.0,30.7
2012-09-15 00:21:00,0.0,1.9390,0.0008,391.28,0.33,186.3,31.4,138.04,31.00,24.65,36.52,1.05,-25.06,-26.41,-47,38,-940,24.3,17.8,-1.7,24.6,1.6,-30.2,5.73,2.53,-28.1,30.7
2012-09-15 00:22:00,0.0,1.9386,0.0009,391.26,0.30,194.4,32.4,138.04,31.01,24.65,36.52,1.03,-25.33,-26.41,-47,38,-940,24.3,17.4,-2.0,24.6,1.6,-30.2,5.73,2.53,-28.1,30.7
2012-09-15 00:23:00,0.0,1.9389,0.0009,391.35,0.30,196.0,28.0,138.03,31.02,24.65,36.52,0.96,-25.60,-26.42,-47,38,-940,24.3,17.7,-1.8,24.6,1.6,-30.1,5.73,2.53,-28.1,30.7
2012-09-15 00:24:00,0.0,1.9387,0.0009,391.34,0.30,189.3,37.0,138.04,31.03,24.65,36.51,0.96,-25.84,-26.43,-47,38,-940,24.3,17.5,-2.0,24.6,1.6,-30.1,5.73,2.55,-28.1,30.7
2012-09-15 00:25:00,0.0,1.9391,0.0008,391.29,0.29,188.7,35.2,138.04,31.03,24.65,36.52,1.01,-26.07,-26.43,-47,38,-940,24.3,17.5,-1.9,24.7,1.6,-30.2,5.73,2.55,-28.1,30.8
2012-09-15 00:26:00,0.0,1.9394,0.0010,391.37,0.25,195.5,29.1,138.04,31.04,24.65,36.52,1.04,-26.28,-26.43,-47,38,-940,24.3,17.8,-1.7,24.7,1.6,-30.1,5.73,2.54,-28.1,30.8
2012-09-15 00:27:00,0.0,1.9390,0.0009,391.39,0.35,194.1,34.0,138.03,31.05,24.65,36.51,0.97,-26.31,-26.44,-47,38,-940,24.3,17.9,-1.6,24.7,1.6,-30.1,5.73,2.53,-28.1,30.8
2012-09-15 00:28:00,0.0,1.9383,0.0011,391.28,0.29,191.6,36.3,138.04,31.06,24.65,36.52,1.02,-26.10,-26.45,-47,38,-941,24.3,17.9,-1.6,24.7,1.6,-30.1,5.73,2.52,-28.1,30.8
2012-09-15 00:29:00,0.0,1.9376,0.0009,391.37,0.34,194.5,30.9,138.04,31.06,24.65,36.51,0.94,-26.23,-26.45,-47,38,-940,24.3,17.1,-2.2,24.7,1.6,-30.1,5.73,2.53,-28.1,30.8
2012-09-15 00:30:00,0.0,1.9372,0.0009,391.30,0.27,192.7,36.3,138.04,31.07,24.65,36.52,0.95,-26.40,-26.46,-47,38,-940,24.4,16.8,-2.4,24.7,1.6,-30.1,5.73,2.54,-28.1,30.8
2012-09-15 00:31:00,0.0,1.9376,0.0010,391.34,0.28,193.7,33.4,138.03,31.08,24.65,36.51,0.99,-26.14,-26.46,-47,38,-940,24.3,16.6,-2.6,24.7,1.6,-30.2,5.73,2.55,-28.1,30.8
2012-09-15 00:32:00,0.0,1.9372,0.0011,391.25,0.32,190.3,36.8,138.03,31.08,24.65,36.52,1.01,-26.17,-26.47,-47,38,-941,24.4,16.9,-2.4,24.7,1.6,-30.1,5.73,2.54,-28.1,30.8
2012-09-15 00:33:00,0.0,1.9374,0.0010,391.19,0.32,188.5,35.5,138.03,31.09,24.65,36.52,1.04,-26.33,-26.47,-47,38,-941,24.4,17.0,-2.2,24.7,1.6,-30.1,5.73,2.53,-28.1,30.9
2012-09-15 00:34:00,0.0,1.9376,0.0010,391.39,0.33,192.7,31.1,138.03,31.10,24.65,36.51,0.95,-26.33,-26.48,-47,38,-941,24.4,17.5,-1.9,24.7,1.6,-30.1,5.73,2.52,-28.2,30.8
2012-09-15 00:35:00,0.0,1.9379,0.0009,391.32,0.36,188.6,31.2,138.03,31.11,24.65,36.52,1.02,-26.14,-26.48,-47,38,-941,24.4,16.9,-2.3,24.7,1.6,-30.1,5.73,2.53,-28.2,30.8
2012-09-15 00:36:00,0.0,1.9377,0.0009,391.30,0.29,188.4,33.0,138.03,31.12,24.65,36.52,0.95,-26.27,-26.49,-47,38,-941,24.4,17.1,-2.2,24.7,1.6,-30.1,5.73,2.54,-28.2,30.9
2012-09-15 00:37:00,0.0,1.9376,0.0010,391.49,0.24,196.9,34.8,138.03,31.13,24.65,36.51,0.94,-26.43,-26.50,-47,38,-941,24.5,17.1,-2.1,24.8,1.6,-30.1,5.73,2.55,-28.2,30.9
2012-09-15 00:38:00,0.0,1.9374,0.0010,391.35,0.31,186.7,28.3,138.03,31.14,24.65,36.51,0.98,-26.19,-26.50,-47,38,-941,24.4,16.9,-2.3,24.8,1.6,-30.1,5.73,2.54,-28.2,30.9
2012-09-15 00:39:00,0.0,1.9385,0.0011,391.34,0.31,188.2,36.9,138.03,31.15,24.65,36.52,1.01,-26.21,-26.51,-47,38,-941,24.5,17.1,-2.1,24.8,1.6,-30.1,5.73,2.53,-28.2,30.9
2012-09-15 00:40:00,0.0,1.9386,0.0010,391.35,0.32,183.7,34.2,138.03,31.15,24.65,36.52,0.84,-26.40,-26.02,-47,38,-941,24.5,17.3,-2.0,24.8,1.6,-30.2,5.73,2.53,-28.2,30.9
2012-09-15 00:41:00,0.0,1.9384,0.0011,391.29,0.32,187.6,32.6,138.03,31.16,24.65,36.52,0.90,-26.57,-24.33,-47,38,-941,24.5,17.2,-2.1,24.8,1.6,-30.2,5.73,2.52,-28.1,30.9
2012-09-15 00:42:00,0.0,1.9386,0.0012,391.22,0.31,207.3,30.8,138.03,31.17,24.65,36.52,0.94,-26.68,-22.36,-47,38,-941,24.5,17.2,-2.0,24.8,1.6,-30.1,5.73,2.53,-27.7,30.9
2012-09-15 00:43:00,0.0,1.9381,0.0010,391.35,0.31,231.1,36.4,138.03,31.18,24.65,36.52,0.94,-26.73,-20.41,-47,38,-941,24.5,17.0,-2.1,24.8,1.7,-29.7,5.73,2.55,-27.3,31.0
2012-09-15 00:44:00,0.0,1.9378,0.0012,391.43,0.26,251.2,39.5,138.03,31.18,24.65,36.51,0.85,-26.74,-18.54,-47,38,-941,24.5,16.7,-2.3,24.8,1.8,-29.1,5.73,2.55,-27.0,30.9
2012-09-15 00:45:00,0.0,1.9383,0.0009,391.37,0.35,263.7,27.9,138.03,31.19,24.65,36.51,0.81,-26.76,-16.74,-47,38,-941,24.5,17.0,-2.1,24.8,1.8,-28.7,5.73,2.54,-26.9,30.9
2012-09-15 00:46:00,0.0,1.9379,0.0012,391.27,0.31,270.6,31.0,138.03,31.20,24.65,36.52,0.87,-26.74,-15.05,-47,38,-941,24.6,17.1,-2.0,24.9,1.9,-28.4,5.73,2.53,-26.7,30.9
2012-09-15 00:47:00,0.0,1.9384,0.0010,391.35,0.27,279.3,29.6,138.03,31.20,24.65,36.52,0.90,-26.72,-13.45,-47,38,-941,24.6,17.2,-1.9,24.9,1.9,-28.2,5.73,2.52,-26.7,30.9
2012-09-15 00:48:00,0.0,1.9388,0.0010,391.36,0.34,276.5,29.9,138.03,31.21,24.65,36.51,0.93,-26.70,-11.93,-47,38,-941,24.6,17.2,-2.0,24.9,1.9,-28.1,5.73,2.53,-26.7,30.9
2012-09-15 00:49:00,0.0,1.9388,0.0010,391.26,0.31,275.8,32.7,138.03,31.22,24.66,36.52,0.94,-26.68,-10.48,-47,38,-941,24.6,17.0,-2.0,24.9,1.9,-28.2,5.73,2.54,-26.7,30.9
2012-09-15 00:50:00,0.0,1.9393,0.0009,391.35,0.31,270.4,29.1,138.03,31.22,24.65,36.52,0.86,-26.65,-9.11,-47,38,-941,24.6,17.3,-1.8,24.9,1.9,-28.2,5.73,2.55,-26.7,30.9
2012-09-15 00:51:00,0.0,1.9386,0.0011,391.44,0.34,276.6,28.9,138.03,31.23,24.65,36.51,0.86,-26.63,-7.82,-47,38,-941,24.7,17.2,-1.8,24.9,1.9,-28.3,5.73,2.55,-26.7,31.0
2012-09-15 00:52:00,0.0,1.9382,0.0009,391.39,0.35,279.1,31.2,138.03,31.24,24.66,36.51,0.87,-26.60,-6.59,-47,38,-941,24.7,17.0,-2.0,24.9,1.9,-28.3,5.73,2.53,-26.7,31.0
2012-09-15 00:53:00,0.0,1.9384,0.0008,391.41,0.32,267.5,25.9,138.03,31.25,24.65,36.51,0.90,-26.57,-5.42,-47,38,-941,24.7,17.2,-1.9,25.0,1.9,-28.4,5.73,2.53,-26.8,31.0
2012-09-15 00:54:00,0.0,1.9391,0.0009,391.51,0.27,269.3,34.0,138.03,31.25,24.65,36.50,0.92,-26.56,-4.33,-47,38,-941,24.7,17.3,-1.7,25.0,1.9,-28.4,5.73,2.53,-26.8,31.0
2012-09-15 00:55:00,0.0,1.9389,0.0011,391.37,0.36,266.7,31.4,138.03,31.26,24.65,36.51,0.93,-26.54,-3.25,-47,38,-941,24.7,17.2,-1.8,25.0,1.8,-28.5,5.73,2.54,-26.8,31.0
2012-09-15 00:56:00,0.0,1.9388,0.0009,391.38,0.29,264.0,30.9,138.03,31.27,24.65,36.51,0.93,-26.50,-2.25,-47,38,-941,24.8,17.3,-1.8,25.1,1.8,-28.5,5.73,2.55,-26.8,31.1
2012-09-15 00:57:00,0.0,1.9387,0.0009,391.33,0.33,265.8,28.5,138.03,31.28,24.65,36.52,0.93,-26.48,-1.30,-47,38,-941,24.8,17.1,-1.8,25.1,1.8,-28.5,5.73,2.55,-26.9,31.0
2012-09-15 00:58:00,0.0,1.9391,0.0011,391.46,0.34,265.5,27.5,138.03,31.28,24.65,36.51,0.89,-26.46,-0.39,-48,38,-942,24.8,17.0,-1.9,25.1,1.8,-28.5,5.73,2.54,-26.9,31.0
2012-09-15 00:59:00,0.0,1.9389,0.0011,391.45,0.33,257.3,31.5,138.03,31.29,24.66,36.51,0.87,-26.43,0.46,-48,38,-942,24.9,16.7,-2.1,25.1,1.8,-28.7,5.73,2.54,-26.9,31.1
2012-09-15 01:00:00,0.0,1.9394,0.0010,391.37,0.27,260.4,32.7,138.03,31.30,24.65,36.51,0.88,-26.41,1.27,-48,38,-942,24.9,16.7,-2.1,25.1,1.8,-28.7,5.73,2.53,-26.9,31.1
2012-09-15 01:01:00,0.0,1.9392,0.0011,391.55,0.27,257.6,36.8,138.03,31.31,24.66,36.51,0.89,-26.39,2.03,-47,38,-942,24.9,16.9,-1.9,25.1,1.8,-28.7,5.73,2.53,-27.0,31.1
2012-09-15 01:02:00,0.0,1.9397,0.0010,391.44,0.28,252.3,30.3,138.03,31.31,24.65,36.51,0.90,-26.37,2.70,-48,38,-942,24.9,16.9,-2.0,25.1,1.8,-28.7,5.73,2.55,-27.0,31.2
2012-09-15 01:03:00,0.0,1.9390,0.0010,391.43,0.32,258.3,38.5,138.03,31.32,24.65,36.52,0.93,-26.35,3.14,-48,38,-942,24.9,17.0,-1.9,25.1,1.8,-28.8,5.73,2.55,-27.0,31.1
2012-09-15 01:04:00,0.0,1.9393,0.0012,391.40,0.27,256.4,33.5,138.03,31.33,24.65,36.51,0.95,-26.33,3.31,-48,38,-941,24.9,16.7,-2.1,25.1,1.8,-28.8,5.73,2.54,-27.0,31.1
2012-09-15 01:05:00,0.0,1.9395,0.0011,391.47,0.30,252.0,33.7,138.03,31.33,24.66,36.51,0.95,-26.31,3.55,-48,38,-941,24.9,17.1,-1.8,25.2,1.8,-28.8,5.73,2.54,-27.1,31.1
2012-09-15 01:06:00,0.0,1.9392,0.0009,391.47,0.29,254.5,30.7,138.03,31.34,24.66,36.51,0.94,-26.29,3.97,-48,38,-941,24.9,16.9,-1.9,25.2,1.7,-29.0,5.73,2.52,-27.0,31.1
2012-09-15 01:07:00,0.0,1.9394,0.0009,391.41,0.31,254.4,28.5,138.03,31.34,24.65,36.51,0.90,-26.27,4.54,-48,38,-941,24.9,16.9,-1.9,25.2,1.7,-28.9,5.73,2.53,-27.0,31.2
2012-09-15 01:08:00,0.0,1.9389,0.0011,391.32,0.34,256.0,33.9,138.03,31.35,24.65,36.51,0.88,-26.26,5.15,-48,38,-942,24.9,16.5,-2.2,25.2,1.7,-29.0,5.73,2.54,-27.0,31.2
2012-09-15 01:09:00,0.0,1.9386,0.0010,391.22,0.30,248.9,32.8,138.03,31.36,24.65,36.52,0.88,-26.24,5.71,-48,38,-942,25.0,16.6,-2.1,25.2,1.7,-29.0,5.73,2.55,-27.1,31.2
2012-09-15 01:10:00,0.0,1.9394,0.0011,391.35,0.32,241.3,32.4,138.03,31.36,24.65,36.51,0.89,-26.23,6.23,-48,38,-942,25.0,16.4,-2.2,25.3,1.7,-28.9,5.73,2.55,-27.1,31.2
2012-09-15 01:11:00,0.0,1.9399,0.0010,391.41,0.25,242.2,30.3,138.03,31.37,24.65,36.51,0.91,-26.21,6.74,-48,38,-942,25.0,16.6,-2.1,25.3,1.7,-28.9,5.73,2.54,-27.1,31.2
2012-09-15 01:12:00,0.0,1.9397,0.0010,391.34,0.27,246.4,29.4,138.03,31.38,24.65,36.51,0.91,-26.20,7.22,-48,38,-942,25.0,16.7,-2.0,25.3,1.7,-28.9,5.73,2.53,-27.1,31.2
2012-09-15 01:13:00,0.0,1.9398,0.0010,391.52,0.32,250.9,35.6,138.03,31.39,24.66,36.51,0.93,-26.18,7.68,-48,38,-942,25.0,16.6,-2.1,25.3,1.7,-28.9,5.73,2.52,-27.1,31.1
2012-09-15 01:14:00,0.0,1.9403,0.0012,391.58,0.32,243.9,34.7,138.03,31.40,24.65,36.50,0.94,-26.17,8.11,-48,37,-941,25.1,16.6,-2.1,25.3,1.7,-28.9,5.73,2.53,-27.1,31.2
2012-09-15 01:15:00,0.0,1.9397,0.0011,391.40,0.31,238.4,30.3,138.03,31.40,24.66,36.51,0.95,-26.15,8.53,-48,37,-941,25.1,16.8,-1.9,25.3,1.7,-29.0,5.73,2.54,-27.1,31.2
2012-09-15 01:16:00,0.0,1.9394,0.0009,391.48,0.30,249.5,31.0,138.03,31.41,24.65,36.51,0.95,-26.14,8.94,-48,37,-941,25.1,16.6,-2.0,25.3,1.7,-29.0,5.73,2.54,-27.1,31.2
2012-09-15 01:17:00,0.0,1.9387,0.0009,391.38,0.37,255.7,33.4,138.03,31.42,24.66,36.52,0.94,-26.13,9.33,-48,37,-941,25.1,16.2,-2.3,25.3,1.7,-29.0,5.73,2.54,-27.1,31.3
2012-09-15 01:18:00,0.0,1.9393,0.0009,391.41,0.30,242.0,30.7,138.03,31.42,24.65,36.52,0.94,-26.12,9.71,-48,37,-941,25.1,16.5,-2.0,25.3,1.7,-29.0,5.73,2.54,-27.1,31.3
2012-09-15 01:19:00,0.0,1.9393,0.0011,391.46,0.31,245.7,27.5,138.03,31.43,24.65,36.51,0.92,-26.11,10.09,-48,37,-942,25.1,16.7,-1.9,25.4,1.7,-29.0,5.73,2.52,-27.1,31.3
2012-09-15 01:20:00,0.0,1.9395,0.0010,391.44,0.31,247.2,36.0,138.03,31.44,24.65,36.52,0.91,-26.09,10.44,-48,37,-942,25.1,16.5,-2.1,25.4,1.7,-29.0,5.73,2.53,-27.1,31.4
2012-09-15 01:21:00,0.0,1.9398,0.0011,391.59,0.27,251.9,37.6,138.03,31.45,24.66,36.51,0.91,-26.08,10.79,-48,37,-942,25.1,16.7,-1.9,25.4,1.7,-29.0,5.73,2.53,-27.1,31.4
2012-09-15 01:22:00,0.0,1.9393,0.0009,391.55,0.27,246.6,35.4,138.03,31.45,24.65,36.51,0.91,-26.07,11.13,-48,37,-942,25.1,16.3,-2.2,25.4,1.7,-29.0,5.73,2.53,-27.1,31.4
2012-09-15 01:23:00,0.0,1.9391,0.0011,391.44,0.30,237.6,34.6,138.03,31.46,24.65,36.51,0.90,-26.06,11.46,-48,37,-942,25.2,16.5,-2.0,25.5,1.7,-29.0,5.73,2.54,-27.1,31.4
2012-09-15 01:24:00,0.0,1.9395,0.0011,391.53,0.31,252.1,33.7,138.03,31.47,24.65,36.51,0.92,-26.05,11.77,-48,37,-942,25.2,16.7,-1.8,25.5,1.7,-28.9,5.73,2.55,-27.1,31.4
2012-09-15 01:25:00,0.0,1.9401,0.0010,391.55,0.26,247.9,34.9,138.03,31.48,24.65,36.51,0.92,-26.04,12.08,-48,37,-942,25.2,16.6,-1.9,25.5,1.7,-28.9,5.73,2.53,-27.1,31.4
2012-09-15 01:26:00,0.0,1.9394,0.0009,391.44,0.34,248.6,31.2,138.03,31.49,24.65,36.51,0.92,-26.03,12.37,-48,37,-942,25.2,16.3,-2.2,25.5,1.7,-28.9,5.73,2.53,-27.1,31.4
2012-09-15 01:27:00,0.0,1.9387,0.0011,391.41,0.29,242.9,32.4,138.03,31.49,24.65,36.52,0.92,-26.02,12.66,-48,37,-942,25.2,16.5,-2.0,25.5,1.7,-29.0,5.73,2.52,-27.1,31.5
2012-09-15 01:28:00,0.0,1.9386,0.0009,391.40,0.28,245.5,34.9,138.03,31.50,24.66,36.51,0.92,-26.01,12.93,-48,37,-942,25.2,16.4,-2.1,25.5,1.7,-29.0,5.73,2.52,-27.1,31.5
2012-09-15 01:29:00,0.0,1.9393,0.0009,391.43,0.28,246.4,26.9,138.03,31.51,24.65,36.51,0.94,-26.00,13.19,-48,37,-942,25.2,16.3,-2.1,25.5,1.7,-28.9,5.73,2.53,-27.1,31.5
2012-09-15 01:30:00,0.0,1.9398,0.0010,391.42,0.35,243.6,36.8,138.03,31.51,24.65,36.51,0.94,-25.99,13.44,-48,37,-942,25.2,16.3,-2.2,25.5,1.7,-29.0,5.73,2.54,-27.1,31.5
2012-09-15 01:31:00,0.0,1.9394,0.0009,391.53,0.26,244.9,40.6,138.03,31.52,24.66,36.51,0.94,-25.99,13.67,-48,37,-942,25.2,16.5,-2.0,25.5,1.7,-28.9,5.73,2.54,-27.2,31.6
2012-09-15 01:32:00,0.0,1.9390,0.0009,391.48,0.33,248.6,31.6,138.03,31.53,24.65,36.50,0.95,-25.98,13.90,-48,37,-942,25.1,16.2,-2.3,25.4,1.7,-29.0,5.73,2.53,-27.2,31.6
2012-09-15 01:33:00,0.0,1.9394,0.0009,391.53,0.31,244.6,33.7,138.03,31.54,24.65,36.50,0.95,-25.97,14.12,-48,37,-942,25.0,16.4,-2.2,25.3,1.7,-29.0,5.73,2.52,-27.2,31.6
2012-09-15 01:34:00,0.0,1.9396,0.0010,391.48,0.26,238.2,35.5,138.03,31.54,24.66,36.51,0.95,-25.97,14.33,-48,37,-942,24.9,16.7,-2.1,25.3,1.7,-29.0,5.73,2.52,-27.2,31.6
2012-09-15 01:35:00,0.0,1.9396,0.0010,391.60,0.29,246.7,32.7,138.03,31.55,24.65,36.50,0.94,-25.97,14.53,-48,37,-942,24.9,16.7,-2.1,25.3,1.7,-29.1,5.73,2.52,-27.2,31.5
2012-09-15 01:36:00,0.0,1.9397,0.0009,391.47,0.31,239.5,34.4,138.03,31.56,24.65,36.51,0.93,-25.96,14.73,-48,37,-942,24.8,16.6,-2.3,25.2,1.7,-29.1,5.73,2.54,-27.3,31.5
2012-09-15 01:37:00,0.0,1.9396,0.0009,391.57,0.29,244.5,32.5,138.03,31.56,24.65,36.51,0.91,-25.95,14.91,-48,37,-942,24.7,16.8,-2.1,25.2,1.7,-29.1,5.73,2.55,-27.3,31.5
2012-09-15 01:38:00,0.0,1.9395,0.0010,391.43,0.28,237.4,29.4,138.03,31.57,24.65,36.51,0.91,-25.95,15.08,-48,37,-942,24.7,17.2,-1.9,25.1,1.7,-29.2,5.73,2.54,-27.3,31.5
2012-09-15 01:39:00,0.0,1.9388,0.0011,391.41,0.34,232.5,35.7,138.03,31.58,24.65,36.51,0.91,-25.94,15.26,-48,37,-942,24.7,16.6,-2.4,25.1,1.7,-29.2,5.73,2.53,-27.4,31.5
2012-09-15 01:40:00,0.0,1.9392,0.0011,391.45,0.34,228.6,30.2,138.03,31.58,24.65,36.51,0.92,-25.93,15.42,-48,37,-942,24.6,16.8,-2.2,25.1,1.7,-29.2,5.73,2.53,-27.4,31.4
2012-09-15 01:41:00,0.0,1.9390,0.0011,391.44,0.34,239.1,31.4,138.03,31.58,24.65,36.51,0.91,-25.93,15.57,-48,38,-941,24.6,17.0,-2.1,25.0,1.7,-29.1,5.73,2.54,-27.4,31.4
2012-09-15 01:42:00,0.0,1.9390,0.0012,391.41,0.34,230.1,36.6,138.03,31.58,24.65,36.51,0.90,-25.93,15.72,-48,38,-942,24.5,16.9,-2.3,25.0,1.7,-29.1,5.73,2.56,-27.4,31.2
2012-09-15 01:43:00,0.0,1.9393,0.0012,391.50,0.31,220.8,35.0,138.03,31.59,24.65,36.50,0.92,-25.92,15.86,-47,38,-942,24.5,16.9,-2.3,24.9,1.7,-29.1,5.73,2.55,-27.4,31.2
2012-09-15 01:44:00,0.0,1.9390,0.0011,391.35,0.33,227.7,34.1,138.03,31.59,24.65,36.51,0.90,-25.92,15.99,-47,38,-942,24.4,16.9,-2.3,24.9,1.7,-29.1,5.73,2.53,-27.4,31.2
2012-09-15 01:45:00,0.0,1.9385,0.0010,391.42,0.35,230.1,34.4,138.03,31.60,24.66,36.51,0.92,-25.92,16.12,-47,38,-941,24.4,16.9,-2.3,24.8,1.7,-29.2,5.73,2.53,-27.4,31.1
2012-09-15 01:46:00,0.0,1.9387,0.0012,391.39,0.30,226.1,24.4,138.03,31.60,24.65,36.50,0.94,-25.91,16.25,-48,38,-942,24.3,17.1,-2.2,24.8,1.7,-29.2,5.73,2.54,-27.4,31.0
2012-09-15 01:47:00,0.0,1.9392,0.0010,391.44,0.32,230.5,27.6,138.03,31.60,24.66,36.51,0.93,-25.91,16.36,-47,38,-941,24.3,17.3,-2.1,24.7,1.7,-29.2,5.73,2.55,-27.4,31.0
2012-09-15 01:48:00,0.0,1.9395,0.0011,391.52,0.30,227.6,33.5,138.03,31.61,24.65,36.50,0.93,-25.91,16.47,-47,38,-942,24.2,17.6,-1.9,24.7,1.7,-29.3,5.73,2.56,-27.4,31.0
2012-09-15 01:49:00,0.0,1.9397,0.0011,391.42,0.31,231.5,35.1,138.03,31.61,24.65,36.51,0.94,-25.91,16.59,-47,38,-942,24.2,17.7,-1.9,24.7,1.7,-29.3,5.73,2.55,-27.4,30.9
2012-09-15 01:50:00,0.0,1.9393,0.0011,391.32,0.28,223.3,32.8,138.03,31.62,24.65,36.51,0.93,-25.90,16.68,-47,38,-941,24.1,17.4,-2.1,24.7,1.7,-29.3,5.73,2.53,-27.4,30.8
2012-09-15 01:51:00,0.0,1.9393,0.0011,391.30,0.37,225.4,32.3,138.03,31.62,24.65,36.51,0.94,-25.90,16.78,-47,38,-942,24.1,17.4,-2.2,24.6,1.8,-29.2,5.73,2.53,-27.4,30.7
2012-09-15 01:52:00,0.0,1.9399,0.0011,391.37,0.31,225.6,29.3,138.03,31.62,24.65,36.51,0.94,-25.90,16.88,-47,38,-941,24.1,17.6,-2.0,24.6,1.8,-29.1,5.73,2.55,-27.4,30.7
2012-09-15 01:53:00,0.0,1.9404,0.0010,391.46,0.26,226.3,36.5,138.03,31.63,24.65,36.50,0.94,-25.89,16.97,-47,38,-941,24.0,17.6,-2.1,24.6,1.8,-29.1,5.73,2.56,-27.4,30.7
2012-09-15 01:54:00,0.0,1.9391,0.0009,391.36,0.26,219.2,37.0,138.03,31.63,24.65,36.51,0.94,-25.89,17.06,-47,38,-941,24.0,17.4,-2.2,24.5,1.8,-29.2,5.73,2.56,-27.4,30.6
2012-09-15 01:55:00,0.0,1.9394,0.0012,391.41,0.33,228.4,35.1,138.03,31.63,24.65,36.50,0.95,-25.89,17.14,-47,38,-941,24.0,17.4,-2.3,24.5,1.8,-29.2,5.73,2.54,-27.4,30.6
2012-09-15 01:56:00,0.0,1.9398,0.0011,391.42,0.33,227.2,33.3,138.03,31.64,24.65,36.51,0.94,-25.90,17.22,-47,38,-942,24.0,17.9,-1.9,24.5,1.8,-29.2,5.73,2.53,-27.4,30.5
2012-09-15 01:57:00,0.0,1.9406,0.0010,391.37,0.35,232.6,28.9,138.03,31.64,24.65,36.52,0.93,-25.89,17.29,-47,38,-941,23.9,17.7,-2.1,24.5,1.8,-29.2,5.73,2.54,-27.4,30.5
2012-09-15 01:58:00,0.0,1.9410,0.0011,391.43,0.26,221.2,31.1,138.03,31.64,24.65,36.51,0.93,-25.89,17.37,-47,38,-941,23.9,17.9,-2.0,24.5,1.8,-29.2,5.73,2.55,-27.4,30.5
2012-09-15 01:59:00,0.0,1.9412,0.0010,391.49,0.33,233.2,36.1,138.03,31.65,24.65,36.50,0.93,-25.89,17.43,-47,38,-941,23.9,17.9,-2.0,24.4,1.8,-29.2,5.73,2.56,-27.4,30.5
2012-09-15 02:00:00,0.0,1.9402,0.0013,391.43,0.30,228.2,34.6,138.03,31.65,24.66,36.51,0.92,-25.89,17.50,-47,38,-941,23.9,17.9,-1.9,24.4,1.8,-29.2,5.73,2.56,-27.4,30.4
2012-09-15 02:01:00,0.0,1.9397,0.0009,391.41,0.33,237.9,33.2,138.03,31.66,24.66,36.50,0.90,-25.89,17.56,-47,38,-941,23.9,17.7,-2.2,24.4,1.8,-29.3,5.73,2.55,-27.4,30.4
2012-09-15 02:02:00,0.0,1.9399,0.0010,391.51,0.32,231.6,36.6,138.03,31.66,24.65,36.50,0.89,-25.89,17.63,-47,38,-941,23.8,17.6,-2.2,24.4,1.8,-29.3,5.73,2.54,-27.4,30.3
2012-09-15 02:03:00,0.0,1.9394,0.0015,391.39,0.30,234.2,38.8,138.03,31.67,24.65,36.50,0.93,-25.89,17.68,-47,38,-941,23.8,17.7,-2.2,24.3,1.8,-29.2,5.73,2.54,-27.4,30.3
2012-09-15 02:04:00,0.0,1.9391,0.0011,391.24,0.30,226.9,31.8,138.03,31.67,24.66,36.51,0.91,-25.89,17.74,-47,38,-941,23.8,17.5,-2.4,24.3,1.8,-29.3,5.73,2.55,-27.4,30.3
2012-09-15 02:05:00,0.0,1.9406,0.0010,391.45,0.27,230.1,34.7,138.03,31.68,24.65,36.51,0.92,-25.90,17.79,-47,38,-941,23.7,17.9,-2.1,24.3,1.8,-29.3,5.73,2.56,-27.4,30.2
2012-09-15 02:06:00,0.0,1.9416,0.0011,391.52,0.32,230.2,36.3,138.03,31.68,24.66,36.51,0.93,-25.89,17.84,-47,38,-941,23.7,18.3,-1.8,24.3,1.8,-29.3,5.73,2.56,-27.5,30.2
2012-09-15 02:07:00,0.0,1.9419,0.0010,391.45,0.28,222.7,37.7,138.03,31.68,24.65,36.51,0.92,-25.89,17.89,-47,39,-941,23.7,18.4,-1.7,24.2,1.8,-29.3,5.73,2.55,-27.5,30.1
2012-09-15 02:08:00,0.0,1.9418,0.0009,391.51,0.30,226.7,30.5,138.03,31.69,24.65,36.51,0.92,-25.89,17.94,-47,39,-941,23.7,18.3,-1.8,24.2,1.8,-29.2,5.73,2.53,-27.5,30.1
2012-09-15 02:09:00,0.0,1.9417,0.0011,391.50,0.30,222.4,33.8,138.03,31.69,24.65,36.51,0.92,-25.90,17.98,-47,39,-941,23.7,18.5,-1.7,24.2,1.9,-28.9,5.73,2.54,-27.5,30.1
2012-09-15 02:10:00,0.0,1.9412,0.0010,391.54,0.33,230.2,34.0,138.03,31.70,24.66,36.50,0.94,-25.90,18.03,-46,39,-941,23.7,18.5,-1.7,24.2,1.9,-28.9,5.73,2.56,-27.5,30.1
2012-09-15 02:11:00,0.0,1.9415,0.0013,391.51,0.31,235.0,30.4,138.03,31.70,24.65,36.50,0.93,-25.90,18.06,-47,39,-941,23.6,18.6,-1.7,24.2,1.9,-28.9,5.73,2.57,-27.5,30.1
2012-09-15 02:12:00,0.0,1.9405,0.0009,391.54,0.28,224.0,27.2,138.03,31.70,24.65,36.50,0.93,-25.90,18.10,-47,39,-941,23.6,18.6,-1.6,24.1,1.9,-28.9,5.73,2.56,-27.4,30.0
2012-09-15 02:13:00,0.0,1.9397,0.0013,391.43,0.34,238.5,29.9,138.03,31.70,24.65,36.50,0.93,-25.89,18.14,-47,39,-940,23.6,18.1,-2.1,24.1,1.9,-28.9,5.73,2.54,-27.5,30.0
2012-09-15 02:14:00,0.0,1.9389,0.0011,391.35,0.32,222.2,28.5,138.03,31.70,24.65,36.51,0.94,-25.90,18.18,-46,39,-941,23.6,17.7,-2.4,24.1,1.9,-29.0,5.73,2.54,-27.5,30.0
2012-09-15 02:15:00,0.0,1.9397,0.0009,391.36,0.32,231.6,35.8,138.03,31.71,24.66,36.50,0.94,-25.91,18.20,-46,39,-940,23.6,18.0,-2.2,24.1,1.9,-29.0,5.73,2.55,-27.5,30.0
2012-09-15 02:16:00,0.0,1.9398,0.0010,391.33,0.30,228.5,27.9,138.03,31.71,24.66,36.51,0.94,-25.91,18.24,-47,39,-941,23.6,18.2,-2.0,24.1,1.9,-29.0,5.73,2.56,-27.4,30.0
2012-09-15 02:17:00,0.0,1.9400,0.0010,391.42,0.32,222.1,27.5,138.03,31.71,24.66,36.51,0.94,-25.90,18.27,-46,39,-941,23.5,18.5,-1.8,24.1,1.9,-29.0,5.73,2.57,-27.5,30.0
2012-09-15 02:18:00,0.0,1.9401,0.0011,391.27,0.39,225.9,33.8,138.03,31.72,24.65,36.51,0.94,-25.90,18.29,-46,39,-941,23.5,18.1,-2.1,24.1,1.9,-29.0,5.73,2.55,-27.5,30.0
2012-09-15 02:19:00,0.0,1.9395,0.0009,391.24,0.32,235.4,31.1,138.03,31.72,24.65,36.51,0.94,-25.90,18.32,-46,39,-941,23.5,17.9,-2.3,24.0,1.9,-29.0,5.73,2.54,-27.5,29.9
2012-09-15 02:20:00,0.0,1.9390,0.0011,391.30,0.34,229.0,34.9,138.03,31.72,24.65,36.51,0.94,-25.91,18.36,-46,39,-941,23.5,17.9,-2.3,24.0,1.9,-29.0,5.73,2.54,-27.5,29.9